TimeCDT,TemperatureF,Dew PointF,Humidity,Sea Level PressureIn,VisibilityMPH,Wind Direction,Wind SpeedMPH,Gust SpeedMPH,PrecipitationIn,Events,Conditions,WindDirDegrees,DateUTC
12:56 AM,70.9,52.0,51,30.04,10.0,ESE,10.4,-,N/A,,Clear,120,2013-05-06 05:56:00
1:56 AM,68.9,54.0,59,30.03,10.0,SSE,8.1,-,N/A,,Clear,160,2013-05-06 06:56:00
2:56 AM,68.0,54.0,61,30.02,10.0,SSE,10.4,-,N/A,,Clear,160,2013-05-06 07:56:00
3:56 AM,66.9,54.9,65,30.01,10.0,SE,8.1,-,N/A,,Clear,140,2013-05-06 08:56:00
4:56 AM,64.9,55.9,73,30.00,10.0,SSE,10.4,-,N/A,,Clear,150,2013-05-06 09:56:00
5:56 AM,63.9,56.8,78,30.00,10.0,SE,9.2,-,N/A,,Clear,130,2013-05-06 10:56:00
6:56 AM,63.0,57.9,84,30.02,10.0,SE,6.9,-,N/A,,Clear,130,2013-05-06 11:56:00
7:56 AM,63.9,59.0,84,30.06,10.0,ESE,6.9,-,N/A,,Clear,120,2013-05-06 12:56:00
8:56 AM,68.9,59.9,73,30.07,10.0,SE,11.5,-,N/A,,Clear,140,2013-05-06 13:56:00
9:56 AM,70.9,59.0,66,30.06,10.0,SE,12.7,-,N/A,,Clear,130,2013-05-06 14:56:00
10:56 AM,74.8,56.8,53,30.05,10.0,SE,11.5,-,N/A,,Clear,130,2013-05-06 15:56:00
11:56 AM,79.0,50.0,36,30.05,10.0,SE,11.5,-,N/A,,Clear,130,2013-05-06 16:56:00
12:56 PM,81.0,45.9,29,30.03,10.0,SSE,13.8,-,N/A,,Partly Cloudy,150,2013-05-06 17:56:00
1:56 PM,82.9,48.9,31,30.00,10.0,ESE,12.7,-,N/A,,Partly Cloudy,120,2013-05-06 18:56:00
2:56 PM,83.8,45.9,26,29.98,10.0,SE,8.1,19.6,N/A,,Clear,130,2013-05-06 19:56:00
3:56 PM,86.0,45.9,25,29.94,10.0,SSE,13.8,-,N/A,,Clear,150,2013-05-06 20:56:00
4:56 PM,86.9,45.0,23,29.91,10.0,SE,11.5,20.7,N/A,,Clear,140,2013-05-06 21:56:00
5:56 PM,86.9,45.9,24,29.91,10.0,ESE,15.0,-,N/A,,Clear,120,2013-05-06 22:56:00
6:56 PM,86.0,46.9,26,29.91,10.0,SE,12.7,-,N/A,,Clear,130,2013-05-06 23:56:00
7:56 PM,82.9,52.9,35,29.92,10.0,ESE,18.4,24.2,N/A,,Clear,120,2013-05-07 00:56:00
8:56 PM,77.9,52.9,42,29.96,10.0,ESE,15.0,-,N/A,,Clear,110,2013-05-07 01:56:00
9:56 PM,75.9,52.9,45,29.98,10.0,ESE,15.0,-,N/A,,Clear,120,2013-05-07 02:56:00
10:56 PM,73.9,54.0,50,30.01,10.0,SE,15.0,-,N/A,,Clear,130,2013-05-07 03:56:00
11:56 PM,72.0,54.9,55,30.01,10.0,SE,10.4,-,N/A,,Clear,130,2013-05-07 04:56:00